START_TIME,STEP,MOV.,P11,t_acc.,P23,t_acc.,P27,t_acc.,A4,t_acc.
1979-07-24 00:00:22.620 ,0,0,4.,4.8,0.,4.8,0.,4.8,0.,4.8
1979-07-24 00:00:27.420 ,0,0,2.,4.8,0.,4.8,0.,4.8,0.,4.8
1979-07-24 00:00:32.220 ,0,0,1.,4.8,0.,4.8,0.,4.8,0.,4.8
1979-07-24 00:00:37.020 ,0,0,6.,4.8,0.,4.8,0.,4.8,0.,4.8
1979-07-24 00:00:41.820 ,0,0,4.,4.8,0.,4.8,0.,4.8,0.,4.8
1979-07-24 00:00:46.620 ,1,0,5.,4.8,0.,4.8,0.,4.8,0.,4.8
1979-07-24 00:00:51.420 ,1,0,3.,4.8,0.,4.8,0.,4.8,0.,4.8
1979-07-24 00:00:56.220 ,1,0,5.,4.8,0.,4.8,0.,4.8,0.,4.8
1979-07-24 00:01:01.020 ,1,0,3.,4.8,1.,4.8,0.,4.8,0.,4.8
1979-07-24 00:01:05.820 ,1,0,3.,4.8,0.,4.8,0.,4.8,0.,4.8
1979-07-24 00:01:10.620 ,1,0,3.,4.8,0.,4.8,0.,4.8,0.,4.8
1979-07-24 00:01:15.420 ,1,0,3.,4.8,0.,4.8,0.,4.8,0.,4.8
1979-07-24 00:01:20.220 ,1,0,1.,4.8,0.,4.8,0.,4.8,0.,4.8
1979-07-24 00:01:25.020 ,1,0,2.,4.8,0.,4.8,0.,4.8,0.,4.8
1979-07-24 00:01:29.820 ,1,0,5.,4.8,0.,4.8,0.,4.8,0.,4.8
1979-07-24 00:01:34.620 ,2,0,4.,4.8,0.,4.8,0.,4.8,0.,4.8
1979-07-24 00:01:39.420 ,2,0,5.,4.8,0.,4.8,1.,4.8,0.,4.8
1979-07-24 00:01:44.220 ,2,0,3.,4.8,0.,4.8,0.,4.8,0.,4.8
1979-07-24 00:01:49.020 ,2,0,5.,4.8,0.,4.8,0.,4.8,0.,4.8
1979-07-24 00:01:53.820 ,2,0,3.,4.8,0.,4.8,0.,4.8,0.,4.8
1979-07-24 00:01:58.620 ,2,0,4.,4.8,0.,4.8,0.,4.8,0.,4.8
1979-07-24 00:02:03.420 ,2,0,9.,4.8,0.,4.8,0.,4.8,0.,4.8
1979-07-24 00:02:08.220 ,2,0,4.,4.8,0.,4.8,0.,4.8,0.,4.8
1979-07-24 00:02:13.020 ,2,0,5.,4.8,0.,4.8,0.,4.8,0.,4.8
1979-07-24 00:02:17.820 ,2,0,5.,4.8,0.,4.8,1.,4.8,0.,4.8
1979-07-24 00:02:22.620 ,3,0,10.,4.8,0.,4.8,0.,4.8,0.,4.8
1979-07-24 00:02:27.420 ,3,0,4.,4.8,0.,4.8,0.,4.8,0.,4.8
1979-07-24 00:02:32.220 ,3,0,7.,4.8,0.,4.8,0.,4.8,0.,4.8
1979-07-24 00:02:37.020 ,3,0,6.,4.8,0.,4.8,0.,4.8,0.,4.8
1979-07-24 00:02:41.820 ,3,0,2.,4.8,0.,4.8,0.,4.8,0.,4.8
1979-07-24 00:02:46.620 ,3,0,6.,4.8,0.,4.8,0.,4.8,0.,4.8
1979-07-24 00:02:51.420 ,3,0,3.,4.8,0.,4.8,1.,4.8,0.,4.8
1979-07-24 00:02:56.220 ,3,0,3.,4.8,0.,4.8,0.,4.8,0.,4.8
1979-07-24 00:03:01.020 ,3,0,4.,4.8,0.,4.8,0.,4.8,0.,4.8
1979-07-24 00:03:05.820 ,3,0,5.,4.8,0.,4.8,1.,4.8,0.,4.8
1979-07-24 00:03:10.620 ,4,0,4.,4.8,0.,4.8,0.,4.8,0.,4.8
1979-07-24 00:03:15.420 ,4,0,4.,4.8,0.,4.8,0.,4.8,0.,4.8
1979-07-24 00:03:20.220 ,4,0,6.,4.8,0.,4.8,0.,4.8,0.,4.8
1979-07-24 00:03:25.020 ,4,0,5.,4.8,0.,4.8,0.,4.8,0.,4.8
1979-07-24 00:03:29.820 ,4,0,1.,4.8,0.,4.8,0.,4.8,0.,4.8
1979-07-24 00:03:34.620 ,4,0,4.,4.8,0.,4.8,0.,4.8,0.,4.8
1979-07-24 00:03:39.420 ,4,0,2.,4.8,0.,4.8,0.,4.8,0.,4.8
1979-07-24 00:03:44.220 ,4,0,6.,4.8,0.,4.8,0.,4.8,0.,4.8
1979-07-24 00:03:49.020 ,4,0,2.,4.8,0.,4.8,1.,4.8,0.,4.8
1979-07-24 00:03:53.820 ,4,0,5.,4.8,0.,4.8,0.,4.8,0.,4.8
1979-07-24 00:03:58.620 ,5,0,5.,4.8,0.,4.8,0.,4.8,0.,4.8
1979-07-24 00:04:03.420 ,5,0,1.,4.8,0.,4.8,0.,4.8,0.,4.8
1979-07-24 00:04:08.220 ,5,0,3.,4.8,0.,4.8,0.,4.8,0.,4.8
1979-07-24 00:04:13.020 ,5,0,1.,4.8,0.,4.8,0.,4.8,0.,4.8
1979-07-24 00:04:17.820 ,5,0,2.,4.8,0.,4.8,0.,4.8,0.,4.8
1979-07-24 00:04:22.620 ,5,0,4.,4.8,0.,4.8,0.,4.8,0.,4.8
1979-07-24 00:04:27.420 ,5,0,6.,4.8,0.,4.8,0.,4.8,0.,4.8
1979-07-24 00:04:32.220 ,5,0,3.,4.8,0.,4.8,0.,4.8,0.,4.8
1979-07-24 00:04:37.020 ,5,0,5.,4.8,0.,4.8,0.,4.8,0.,4.8
1979-07-24 00:04:41.820 ,5,0,3.,4.8,0.,4.8,0.,4.8,0.,4.8
1979-07-24 00:04:46.620 ,6,0,9.,4.8,0.,4.8,0.,4.8,0.,4.8
1979-07-24 00:04:51.420 ,6,0,9.,4.8,0.,4.8,0.,4.8,0.,4.8
1979-07-24 00:04:56.220 ,6,0,1.,4.8,0.,4.8,0.,4.8,0.,4.8
1979-07-24 00:05:01.020 ,6,0,5.,4.8,0.,4.8,0.,4.8,0.,4.8
1979-07-24 00:05:05.820 ,6,0,9.,4.8,0.,4.8,0.,4.8,0.,4.8
1979-07-24 00:05:10.620 ,6,0,5.,4.8,0.,4.8,0.,4.8,0.,4.8
1979-07-24 00:05:15.420 ,6,0,4.,4.8,0.,4.8,0.,4.8,0.,4.8
1979-07-24 00:05:20.220 ,6,0,1.,4.8,0.,4.8,0.,4.8,0.,4.8
1979-07-24 00:05:25.020 ,6,0,4.,4.8,0.,4.8,0.,4.8,0.,4.8
1979-07-24 00:05:29.820 ,6,0,4.,4.8,0.,4.8,1.,4.8,0.,4.8
1979-07-24 00:05:34.620 ,7,0,4.,4.8,0.,4.8,0.,4.8,0.,4.8
1979-07-24 00:05:39.420 ,7,0,4.,4.8,0.,4.8,0.,4.8,0.,4.8
1979-07-24 00:05:44.220 ,7,0,2.,4.8,0.,4.8,1.,4.8,0.,4.8
1979-07-24 00:05:49.020 ,7,0,3.,4.8,0.,4.8,0.,4.8,0.,4.8
1979-07-24 00:05:53.820 ,7,0,3.,4.8,0.,4.8,0.,4.8,0.,4.8
1979-07-24 00:05:58.620 ,7,0,3.,4.8,0.,4.8,1.,4.8,0.,4.8
1979-07-24 00:06:03.420 ,7,0,2.,4.8,0.,4.8,0.,4.8,0.,4.8
1979-07-24 00:06:08.220 ,7,0,2.,4.8,0.,4.8,0.,4.8,0.,4.8
1979-07-24 00:06:13.020 ,7,0,5.,4.8,0.,4.8,0.,4.8,0.,4.8
1979-07-24 00:06:17.820 ,7,0,4.,4.8,0.,4.8,0.,4.8,0.,4.8
1979-07-24 00:06:22.620 ,7,0,1.,4.8,0.,4.8,0.,4.8,0.,4.8
1979-07-24 00:06:27.420 ,7,0,4.,4.8,1.,4.8,0.,4.8,0.,4.8
1979-07-24 00:06:32.220 ,7,0,4.,4.8,0.,4.8,0.,4.8,0.,4.8
1979-07-24 00:06:37.020 ,7,0,2.,4.8,0.,4.8,0.,4.8,0.,4.8
1979-07-24 00:06:41.820 ,7,0,4.,4.8,0.,4.8,0.,4.8,0.,4.8
1979-07-24 00:06:46.620 ,7,0,4.,4.8,0.,4.8,0.,4.8,0.,4.8
1979-07-24 00:06:51.420 ,7,0,2.,4.8,0.,4.8,0.,4.8,0.,4.8
1979-07-24 00:06:56.220 ,7,0,3.,4.8,0.,4.8,0.,4.8,0.,4.8
1979-07-24 00:07:01.020 ,7,0,2.,4.8,0.,4.8,0.,4.8,0.,4.8
1979-07-24 00:07:05.820 ,7,0,4.,4.8,0.,4.8,0.,4.8,0.,4.8
1979-07-24 00:07:10.620 ,6,0,3.,4.8,0.,4.8,0.,4.8,0.,4.8
1979-07-24 00:07:15.420 ,6,0,3.,4.8,0.,4.8,1.,4.8,0.,4.8
1979-07-24 00:07:20.220 ,6,0,5.,4.8,1.,4.8,0.,4.8,0.,4.8
1979-07-24 00:07:25.020 ,6,0,6.,4.8,0.,4.8,0.,4.8,0.,4.8
1979-07-24 00:07:29.820 ,6,0,5.,4.8,0.,4.8,1.,4.8,0.,4.8
1979-07-24 00:07:34.620 ,6,0,3.,4.8,0.,4.8,1.,4.8,0.,4.8
1979-07-24 00:07:39.420 ,6,0,4.,4.8,1.,4.8,0.,4.8,0.,4.8
1979-07-24 00:07:44.220 ,6,0,2.,4.8,0.,4.8,0.,4.8,0.,4.8
1979-07-24 00:07:49.020 ,6,0,3.,4.8,0.,4.8,0.,4.8,0.,4.8
1979-07-24 00:07:53.820 ,6,0,6.,4.8,0.,4.8,0.,4.8,0.,4.8
1979-07-24 00:07:58.620 ,5,0,2.,4.8,0.,4.8,0.,4.8,0.,4.8
1979-07-24 00:08:03.420 ,5,0,2.,4.8,0.,4.8,1.,4.8,0.,4.8
1979-07-24 00:08:08.220 ,5,0,3.,4.8,0.,4.8,0.,4.8,0.,4.8
1979-07-24 00:08:13.020 ,5,0,6.,4.8,0.,4.8,0.,4.8,0.,4.8
1979-07-24 00:08:17.820 ,5,0,4.,4.8,0.,4.8,0.,4.8,0.,4.8
1979-07-24 00:08:22.620 ,5,0,7.,4.8,0.,4.8,0.,4.8,0.,4.8
1979-07-24 00:08:27.420 ,5,0,6.,4.8,0.,4.8,0.,4.8,0.,4.8
1979-07-24 00:08:32.220 ,5,0,3.,4.8,0.,4.8,0.,4.8,0.,4.8
1979-07-24 00:08:37.020 ,5,0,1.,4.8,0.,4.8,1.,4.8,0.,4.8
1979-07-24 00:08:41.820 ,5,0,8.,4.8,1.,4.8,0.,4.8,0.,4.8
1979-07-24 00:08:46.620 ,4,0,5.,4.8,0.,4.8,0.,4.8,0.,4.8
1979-07-24 00:08:51.420 ,4,0,7.,4.8,0.,4.8,0.,4.8,0.,4.8
1979-07-24 00:08:56.220 ,4,0,3.,4.8,0.,4.8,0.,4.8,1.,4.8
1979-07-24 00:09:01.020 ,4,0,2.,4.8,0.,4.8,0.,4.8,0.,4.8
1979-07-24 00:09:05.820 ,4,0,3.,4.8,0.,4.8,0.,4.8,0.,4.8
1979-07-24 00:09:10.620 ,4,0,7.,4.8,0.,4.8,0.,4.8,1.,4.8
1979-07-24 00:09:15.420 ,4,0,2.,4.8,0.,4.8,0.,4.8,0.,4.8
1979-07-24 00:09:20.220 ,4,0,8.,4.8,0.,4.8,0.,4.8,0.,4.8
1979-07-24 00:09:25.020 ,4,0,6.,4.8,0.,4.8,0.,4.8,0.,4.8
1979-07-24 00:09:29.820 ,4,0,3.,4.8,0.,4.8,1.,4.8,0.,4.8
1979-07-24 00:09:34.620 ,3,0,5.,4.8,0.,4.8,0.,4.8,0.,4.8
1979-07-24 00:09:39.420 ,3,0,4.,4.8,0.,4.8,0.,4.8,0.,4.8
1979-07-24 00:09:44.220 ,3,0,5.,4.8,0.,4.8,0.,4.8,0.,4.8
1979-07-24 00:09:49.020 ,3,0,7.,4.8,0.,4.8,0.,4.8,0.,4.8
1979-07-24 00:09:53.820 ,3,0,7.,4.8,0.,4.8,0.,4.8,0.,4.8
1979-07-24 00:09:58.620 ,3,0,6.,4.8,0.,4.8,0.,4.8,0.,4.8
1979-07-24 00:10:03.420 ,3,0,2.,4.8,0.,4.8,0.,4.8,0.,4.8
1979-07-24 00:10:08.220 ,3,0,8.,4.8,0.,4.8,0.,4.8,0.,4.8
1979-07-24 00:10:13.020 ,3,0,8.,4.8,0.,4.8,0.,4.8,0.,4.8
1979-07-24 00:10:17.820 ,3,0,6.,4.8,0.,4.8,0.,4.8,0.,4.8
1979-07-24 00:10:22.620 ,2,0,5.,4.8,0.,4.8,0.,4.8,0.,4.8
1979-07-24 00:10:27.420 ,2,0,4.,4.8,0.,4.8,0.,4.8,0.,4.8
1979-07-24 00:10:32.220 ,2,0,6.,4.8,1.,4.8,0.,4.8,0.,4.8
1979-07-24 00:10:37.020 ,2,0,6.,4.8,0.,4.8,0.,4.8,0.,4.8
1979-07-24 00:10:41.820 ,2,0,0.,4.8,0.,4.8,0.,4.8,0.,4.8
1979-07-24 00:10:46.620 ,2,0,9.,4.8,0.,4.8,0.,4.8,0.,4.8
1979-07-24 00:10:51.420 ,2,0,6.,4.8,0.,4.8,0.,4.8,0.,4.8
1979-07-24 00:10:56.220 ,2,0,2.,4.8,0.,4.8,0.,4.8,0.,4.8
1979-07-24 00:11:01.020 ,2,0,4.,4.8,0.,4.8,0.,4.8,0.,4.8
1979-07-24 00:11:05.820 ,2,0,3.,4.8,0.,4.8,0.,4.8,0.,4.8
1979-07-24 00:11:10.620 ,1,0,2.,4.8,0.,4.8,0.,4.8,0.,4.8
1979-07-24 00:11:15.420 ,1,0,8.,4.8,0.,4.8,0.,4.8,0.,4.8
1979-07-24 00:11:20.220 ,1,0,3.,4.8,0.,4.8,0.,4.8,0.,4.8
1979-07-24 00:11:25.020 ,1,0,11.,4.8,0.,4.8,0.,4.8,0.,4.8
1979-07-24 00:11:29.820 ,1,0,4.,4.8,0.,4.8,0.,4.8,0.,4.8
1979-07-24 00:11:34.620 ,1,0,3.,4.8,0.,4.8,0.,4.8,0.,4.8
1979-07-24 00:11:39.420 ,1,0,8.,4.8,0.,4.8,0.,4.8,0.,4.8
1979-07-24 00:11:44.220 ,1,0,4.,4.8,0.,4.8,0.,4.8,0.,4.8
1979-07-24 00:11:49.020 ,1,0,9.,4.8,0.,4.8,0.,4.8,0.,4.8
1979-07-24 00:11:53.820 ,1,0,5.,4.8,1.,4.8,0.,4.8,0.,4.8
1979-07-24 00:11:58.620 ,0,0,4.,4.8,0.,4.8,0.,4.8,0.,4.8
1979-07-24 00:12:03.420 ,0,0,4.,4.8,0.,4.8,0.,4.8,0.,4.8
1979-07-24 00:12:08.220 ,0,0,3.,4.8,0.,4.8,0.,4.8,0.,4.8
1979-07-24 00:12:13.020 ,0,0,5.,4.8,0.,4.8,1.,4.8,0.,4.8
1979-07-24 00:12:17.820 ,0,0,6.,4.8,0.,4.8,0.,4.8,0.,4.8
1979-07-24 00:12:22.620 ,0,0,8.,4.8,0.,4.8,0.,4.8,0.,4.8
1979-07-24 00:12:27.420 ,0,0,7.,4.8,0.,4.8,0.,4.8,0.,4.8
1979-07-24 00:12:32.220 ,0,0,2.,4.8,0.,4.8,0.,4.8,0.,4.8
1979-07-24 00:12:37.020 ,0,0,2.,4.8,0.,4.8,0.,4.8,0.,4.8
1979-07-24 00:12:41.820 ,0,0,4.,4.8,0.,4.8,0.,4.8,0.,4.8
1979-07-24 00:12:46.620 ,0,0,6.,4.8,0.,4.8,0.,4.8,0.,4.8
1979-07-24 00:12:51.420 ,0,0,5.,4.8,0.,4.8,1.,4.8,0.,4.8
1979-07-24 00:12:56.220 ,0,0,7.,4.8,0.,4.8,0.,4.8,0.,4.8
1979-07-24 00:13:01.020 ,0,0,5.,4.8,0.,4.8,0.,4.8,0.,4.8
1979-07-24 00:13:05.820 ,0,0,7.,4.8,0.,4.8,0.,4.8,0.,4.8
1979-07-24 00:13:10.620 ,0,0,6.,4.8,0.,4.8,0.,4.8,0.,4.8
1979-07-24 00:13:15.420 ,0,0,5.,4.8,0.,4.8,0.,4.8,0.,4.8
1979-07-24 00:13:20.220 ,0,0,5.,4.8,0.,4.8,0.,4.8,1.,4.8
1979-07-24 00:13:25.020 ,0,0,5.,4.8,0.,4.8,0.,4.8,0.,4.8
1979-07-24 00:13:29.820 ,0,0,6.,4.8,0.,4.8,0.,4.8,0.,4.8
1979-07-24 00:13:34.620 ,1,0,3.,4.8,0.,4.8,0.,4.8,0.,4.8
1979-07-24 00:13:39.420 ,1,0,11.,4.8,0.,4.8,0.,4.8,0.,4.8
1979-07-24 00:13:44.220 ,1,0,7.,4.8,0.,4.8,0.,4.8,0.,4.8
1979-07-24 00:13:49.020 ,1,0,2.,4.8,0.,4.8,0.,4.8,0.,4.8
1979-07-24 00:13:53.820 ,1,0,5.,4.8,0.,4.8,0.,4.8,0.,4.8
1979-07-24 00:13:58.620 ,1,0,4.,4.8,0.,4.8,1.,4.8,0.,4.8
1979-07-24 00:14:03.420 ,1,0,8.,4.8,0.,4.8,2.,4.8,0.,4.8
1979-07-24 00:14:08.220 ,1,0,4.,4.8,0.,4.8,0.,4.8,0.,4.8
1979-07-24 00:14:13.020 ,1,0,5.,4.8,0.,4.8,1.,4.8,0.,4.8
1979-07-24 00:14:17.820 ,1,0,5.,4.8,0.,4.8,0.,4.8,0.,4.8
1979-07-24 00:14:22.620 ,2,0,8.,4.8,0.,4.8,0.,4.8,0.,4.8
1979-07-24 00:14:27.420 ,2,0,4.,4.8,1.,4.8,0.,4.8,0.,4.8
1979-07-24 00:14:32.220 ,2,0,3.,4.8,0.,4.8,0.,4.8,0.,4.8
1979-07-24 00:14:37.020 ,2,0,3.,4.8,0.,4.8,1.,4.8,0.,4.8
1979-07-24 00:14:41.820 ,2,0,3.,4.8,0.,4.8,0.,4.8,0.,4.8
1979-07-24 00:14:46.620 ,2,0,2.,4.8,0.,4.8,0.,4.8,0.,4.8
1979-07-24 00:14:51.420 ,2,0,6.,4.8,0.,4.8,0.,4.8,0.,4.8
1979-07-24 00:14:56.220 ,2,0,3.,4.8,0.,4.8,0.,4.8,0.,4.8
1979-07-24 00:15:01.020 ,2,0,4.,4.8,0.,4.8,0.,4.8,0.,4.8
1979-07-24 00:15:05.820 ,2,0,5.,4.8,0.,4.8,0.,4.8,0.,4.8
1979-07-24 00:15:10.620 ,3,0,4.,4.8,0.,4.8,0.,4.8,0.,4.8
1979-07-24 00:15:15.420 ,3,0,4.,4.8,0.,4.8,0.,4.8,0.,4.8
1979-07-24 00:15:20.220 ,3,0,3.,4.8,0.,4.8,0.,4.8,0.,4.8
1979-07-24 00:15:25.020 ,3,0,5.,4.8,0.,4.8,0.,4.8,0.,4.8
1979-07-24 00:15:29.820 ,3,0,3.,4.8,0.,4.8,1.,4.8,0.,4.8
1979-07-24 00:15:34.620 ,3,0,2.,4.8,0.,4.8,0.,4.8,0.,4.8
1979-07-24 00:15:39.420 ,3,0,4.,4.8,0.,4.8,0.,4.8,0.,4.8
1979-07-24 00:15:44.220 ,3,0,7.,4.8,0.,4.8,0.,4.8,0.,4.8
1979-07-24 00:15:49.020 ,3,0,2.,4.8,0.,4.8,0.,4.8,0.,4.8
1979-07-24 00:15:53.820 ,3,0,6.,4.8,0.,4.8,0.,4.8,0.,4.8
1979-07-24 00:15:58.620 ,4,0,10.,4.8,0.,4.8,0.,4.8,0.,4.8
1979-07-24 00:16:03.420 ,4,0,2.,4.8,0.,4.8,0.,4.8,0.,4.8
1979-07-24 00:16:08.220 ,4,0,2.,4.8,0.,4.8,1.,4.8,0.,4.8
1979-07-24 00:16:13.020 ,4,0,4.,4.8,0.,4.8,0.,4.8,0.,4.8
1979-07-24 00:16:17.820 ,4,0,5.,4.8,0.,4.8,0.,4.8,0.,4.8
1979-07-24 00:16:22.620 ,4,0,3.,4.8,0.,4.8,0.,4.8,0.,4.8
1979-07-24 00:16:27.420 ,4,0,5.,4.8,0.,4.8,1.,4.8,0.,4.8
1979-07-24 00:16:32.220 ,4,0,3.,4.8,0.,4.8,0.,4.8,0.,4.8
1979-07-24 00:16:37.020 ,4,0,3.,4.8,0.,4.8,0.,4.8,0.,4.8
1979-07-24 00:16:41.820 ,4,0,5.,4.8,0.,4.8,0.,4.8,0.,4.8
1979-07-24 00:16:46.620 ,5,0,5.,4.8,2.,4.8,0.,4.8,0.,4.8
1979-07-24 00:16:51.420 ,5,0,8.,4.8,0.,4.8,0.,4.8,0.,4.8
1979-07-24 00:16:56.220 ,5,0,3.,4.8,1.,4.8,0.,4.8,0.,4.8
1979-07-24 00:17:01.020 ,5,0,6.,4.8,0.,4.8,0.,4.8,0.,4.8
1979-07-24 00:17:05.820 ,5,0,4.,4.8,0.,4.8,0.,4.8,0.,4.8
1979-07-24 00:17:10.620 ,5,0,4.,4.8,0.,4.8,0.,4.8,0.,4.8
1979-07-24 00:17:15.420 ,5,0,4.,4.8,0.,4.8,0.,4.8,0.,4.8
1979-07-24 00:17:20.220 ,5,0,4.,4.8,0.,4.8,0.,4.8,0.,4.8
1979-07-24 00:17:25.020 ,5,0,3.,4.8,0.,4.8,0.,4.8,0.,4.8
1979-07-24 00:17:29.820 ,5,0,3.,4.8,0.,4.8,0.,4.8,0.,4.8
1979-07-24 00:17:34.620 ,6,0,3.,4.8,0.,4.8,0.,4.8,0.,4.8
1979-07-24 00:17:39.420 ,6,0,5.,4.8,0.,4.8,0.,4.8,0.,4.8
1979-07-24 00:17:44.220 ,6,0,5.,4.8,0.,4.8,0.,4.8,0.,4.8
1979-07-24 00:17:49.020 ,6,0,7.,4.8,0.,4.8,1.,4.8,0.,4.8
1979-07-24 00:17:53.820 ,6,0,3.,4.8,0.,4.8,0.,4.8,0.,4.8
1979-07-24 00:17:58.620 ,6,0,5.,4.8,0.,4.8,0.,4.8,0.,4.8
1979-07-24 00:18:03.420 ,6,0,4.,4.8,0.,4.8,0.,4.8,0.,4.8
1979-07-24 00:18:08.220 ,6,0,4.,4.8,0.,4.8,0.,4.8,0.,4.8
1979-07-24 00:18:13.020 ,6,0,5.,4.8,0.,4.8,1.,4.8,0.,4.8
1979-07-24 00:18:17.820 ,6,0,4.,4.8,0.,4.8,0.,4.8,0.,4.8
1979-07-24 00:18:22.620 ,7,0,3.,4.8,0.,4.8,0.,4.8,0.,4.8
1979-07-24 00:18:27.420 ,7,0,2.,4.8,0.,4.8,0.,4.8,0.,4.8
1979-07-24 00:18:32.220 ,7,0,3.,4.8,0.,4.8,1.,4.8,0.,4.8
1979-07-24 00:18:37.020 ,7,0,4.,4.8,0.,4.8,0.,4.8,0.,4.8
1979-07-24 00:18:41.820 ,7,0,3.,4.8,0.,4.8,1.,4.8,0.,4.8
1979-07-24 00:18:46.620 ,7,0,3.,4.8,0.,4.8,0.,4.8,0.,4.8
1979-07-24 00:18:51.420 ,7,0,2.,4.8,0.,4.8,0.,4.8,0.,4.8
1979-07-24 00:18:56.220 ,7,0,1.,4.8,0.,4.8,0.,4.8,0.,4.8
1979-07-24 00:19:01.020 ,7,0,2.,4.8,0.,4.8,0.,4.8,0.,4.8
1979-07-24 00:19:05.820 ,7,0,5.,4.8,0.,4.8,0.,4.8,0.,4.8
1979-07-24 00:19:10.620 ,3,1,2.,4.8,0.,4.8,0.,4.8,0.,4.8
1979-07-24 00:19:15.420 ,3,1,3.,4.8,0.,4.8,0.,4.8,0.,4.8
1979-07-24 00:19:20.220 ,3,1,3.,4.8,0.,4.8,0.,4.8,0.,4.8
1979-07-24 00:19:25.020 ,3,1,3.,4.8,0.,4.8,0.,4.8,0.,4.8
1979-07-24 00:19:29.820 ,3,1,3.,4.8,0.,4.8,1.,4.8,0.,4.8
1979-07-24 00:19:34.620 ,0,1,0.,4.8,0.,4.8,0.,4.8,0.,4.8
1979-07-24 00:19:39.420 ,0,1,3.,4.8,0.,4.8,0.,4.8,0.,4.8
1979-07-24 00:19:44.220 ,0,1,2.,4.8,0.,4.8,0.,4.8,0.,4.8
1979-07-24 00:19:49.020 ,0,1,2.,4.8,0.,4.8,0.,4.8,0.,4.8
1979-07-24 00:19:53.820 ,0,1,3.,4.8,0.,4.8,0.,4.8,0.,4.8
1979-07-24 00:19:58.620 ,4,1,2.,4.8,0.,4.8,0.,4.8,0.,4.8
1979-07-24 00:20:03.420 ,4,1,6.,4.8,0.,4.8,0.,4.8,0.,4.8
1979-07-24 00:20:08.220 ,4,1,5.,4.8,0.,4.8,0.,4.8,0.,4.8
1979-07-24 00:20:13.020 ,4,1,5.,4.8,0.,4.8,1.,4.8,0.,4.8
1979-07-24 00:20:17.820 ,4,1,3.,4.8,0.,4.8,0.,4.8,0.,4.8
1979-07-24 00:20:22.620 ,7,1,1.,4.8,0.,4.8,0.,4.8,0.,4.8
1979-07-24 00:20:27.420 ,7,1,4.,4.8,0.,4.8,0.,4.8,0.,4.8
1979-07-24 00:20:32.220 ,7,1,5.,4.8,0.,4.8,0.,4.8,0.,4.8
1979-07-24 00:20:37.020 ,7,1,1.,4.8,0.,4.8,0.,4.8,0.,4.8
1979-07-24 00:20:41.820 ,7,1,0.,4.8,0.,4.8,0.,4.8,0.,4.8
1979-07-24 00:20:46.620 ,3,1,2.,4.8,0.,4.8,0.,4.8,0.,4.8
1979-07-24 00:20:51.420 ,3,1,1.,4.8,1.,4.8,1.,4.8,0.,4.8
1979-07-24 00:20:56.220 ,3,1,5.,4.8,0.,4.8,0.,4.8,0.,4.8
1979-07-24 00:21:01.020 ,3,1,0.,4.8,0.,4.8,0.,4.8,0.,4.8
1979-07-24 00:21:05.820 ,3,1,3.,4.8,0.,4.8,0.,4.8,0.,4.8
1979-07-24 00:21:10.620 ,0,1,6.,4.8,0.,4.8,0.,4.8,0.,4.8
1979-07-24 00:21:15.420 ,0,1,1.,4.8,0.,4.8,0.,4.8,0.,4.8
1979-07-24 00:21:20.220 ,0,1,4.,4.8,0.,4.8,0.,4.8,0.,4.8
1979-07-24 00:21:25.020 ,0,1,5.,4.8,0.,4.8,0.,4.8,0.,4.8
1979-07-24 00:21:29.820 ,0,1,2.,4.8,0.,4.8,0.,4.8,0.,4.8
1979-07-24 00:21:34.620 ,4,1,4.,4.8,0.,4.8,0.,4.8,0.,4.8
1979-07-24 00:21:39.420 ,4,1,5.,4.8,0.,4.8,0.,4.8,0.,4.8
1979-07-24 00:21:44.220 ,4,1,3.,4.8,0.,4.8,1.,4.8,0.,4.8
1979-07-24 00:21:49.020 ,4,1,1.,4.8,0.,4.8,0.,4.8,0.,4.8
1979-07-24 00:21:53.820 ,4,1,4.,4.8,0.,4.8,0.,4.8,0.,4.8
1979-07-24 00:21:58.620 ,7,1,1.,4.8,0.,4.8,0.,4.8,0.,4.8
1979-07-24 00:22:03.420 ,7,1,4.,4.8,0.,4.8,0.,4.8,0.,4.8
1979-07-24 00:22:08.220 ,7,1,2.,4.8,0.,4.8,0.,4.8,0.,4.8
1979-07-24 00:22:13.020 ,7,1,5.,4.8,0.,4.8,0.,4.8,0.,4.8
1979-07-24 00:22:17.820 ,7,1,3.,4.8,1.,4.8,0.,4.8,0.,4.8
1979-07-24 00:22:22.620 ,3,1,4.,4.8,0.,4.8,0.,4.8,0.,4.8
1979-07-24 00:22:27.420 ,3,1,5.,4.8,0.,4.8,0.,4.8,0.,4.8
1979-07-24 00:22:32.220 ,3,1,2.,4.8,0.,4.8,0.,4.8,0.,4.8
1979-07-24 00:22:37.020 ,3,1,3.,4.8,0.,4.8,0.,4.8,0.,4.8
1979-07-24 00:22:41.820 ,3,1,0.,4.8,0.,4.8,0.,4.8,0.,4.8
1979-07-24 00:22:46.620 ,0,1,3.,4.8,0.,4.8,0.,4.8,0.,4.8
1979-07-24 00:22:51.420 ,0,1,5.,4.8,0.,4.8,0.,4.8,0.,4.8
1979-07-24 00:22:56.220 ,0,1,5.,4.8,0.,4.8,0.,4.8,0.,4.8
1979-07-24 00:23:01.020 ,0,1,3.,4.8,0.,4.8,1.,4.8,0.,4.8
1979-07-24 00:23:05.820 ,0,1,4.,4.8,0.,4.8,0.,4.8,1.,4.8
1979-07-24 00:23:10.620 ,4,1,3.,4.8,0.,4.8,0.,4.8,0.,4.8
1979-07-24 00:23:15.420 ,4,1,6.,4.8,0.,4.8,0.,4.8,0.,4.8
1979-07-24 00:23:20.220 ,4,1,0.,4.8,1.,4.8,0.,4.8,0.,4.8
1979-07-24 00:23:25.020 ,4,1,3.,4.8,0.,4.8,0.,4.8,0.,4.8
1979-07-24 00:23:29.820 ,4,1,3.,4.8,0.,4.8,0.,4.8,0.,4.8
1979-07-24 00:23:34.620 ,7,1,3.,4.8,0.,4.8,0.,4.8,0.,4.8
1979-07-24 00:23:39.420 ,7,1,0.,4.8,0.,4.8,0.,4.8,0.,4.8
1979-07-24 00:23:44.220 ,7,1,5.,4.8,0.,4.8,0.,4.8,0.,4.8
1979-07-24 00:23:49.020 ,7,1,0.,4.8,0.,4.8,0.,4.8,0.,4.8
1979-07-24 00:23:53.820 ,7,1,3.,4.8,0.,4.8,0.,4.8,0.,4.8
1979-07-24 00:23:58.620 ,3,1,1.,4.8,0.,4.8,0.,4.8,0.,4.8
1979-07-24 00:24:03.420 ,3,1,7.,4.8,0.,4.8,1.,4.8,0.,4.8
1979-07-24 00:24:08.220 ,3,1,0.,4.8,0.,4.8,0.,4.8,0.,4.8
1979-07-24 00:24:13.020 ,3,1,1.,4.8,0.,4.8,0.,4.8,0.,4.8
1979-07-24 00:24:17.820 ,3,1,3.,4.8,0.,4.8,0.,4.8,0.,4.8
1979-07-24 00:24:22.620 ,0,1,4.,4.8,0.,4.8,0.,4.8,0.,4.8
1979-07-24 00:24:27.420 ,0,1,4.,4.8,0.,4.8,0.,4.8,0.,4.8
1979-07-24 00:24:32.220 ,0,1,3.,4.8,0.,4.8,1.,4.8,0.,4.8
1979-07-24 00:24:37.020 ,0,1,2.,4.8,0.,4.8,0.,4.8,0.,4.8
1979-07-24 00:24:41.820 ,0,1,5.,4.8,0.,4.8,0.,4.8,0.,4.8
1979-07-24 00:24:46.620 ,4,1,4.,4.8,0.,4.8,0.,4.8,0.,4.8
1979-07-24 00:24:51.420 ,4,1,5.,4.8,0.,4.8,0.,4.8,0.,4.8
1979-07-24 00:24:56.220 ,4,1,1.,4.8,1.,4.8,0.,4.8,0.,4.8
1979-07-24 00:25:01.020 ,4,1,2.,4.8,0.,4.8,0.,4.8,0.,4.8
1979-07-24 00:25:05.820 ,4,1,5.,4.8,0.,4.8,0.,4.8,0.,4.8
1979-07-24 00:25:10.620 ,7,1,6.,4.8,0.,4.8,0.,4.8,0.,4.8
1979-07-24 00:25:15.420 ,7,1,3.,4.8,1.,4.8,0.,4.8,0.,4.8
1979-07-24 00:25:20.220 ,7,1,7.,4.8,1.,4.8,0.,4.8,0.,4.8
1979-07-24 00:25:25.020 ,7,1,1.,4.8,0.,4.8,0.,4.8,0.,4.8
1979-07-24 00:25:29.820 ,7,1,2.,4.8,0.,4.8,0.,4.8,0.,4.8
1979-07-24 00:25:34.620 ,3,1,1.,4.8,0.,4.8,0.,4.8,0.,4.8
1979-07-24 00:25:39.420 ,3,1,5.,4.8,0.,4.8,0.,4.8,0.,4.8
1979-07-24 00:25:44.220 ,3,1,4.,4.8,0.,4.8,0.,4.8,1.,4.8
1979-07-24 00:25:49.020 ,3,1,4.,4.8,0.,4.8,0.,4.8,0.,4.8
1979-07-24 00:25:53.820 ,3,1,2.,4.8,0.,4.8,0.,4.8,0.,4.8
1979-07-24 00:25:58.620 ,0,1,3.,4.8,0.,4.8,0.,4.8,0.,4.8
1979-07-24 00:26:03.420 ,0,1,8.,4.8,1.,4.8,0.,4.8,0.,4.8
1979-07-24 00:26:08.220 ,0,1,3.,4.8,0.,4.8,0.,4.8,0.,4.8
1979-07-24 00:26:13.020 ,0,1,4.,4.8,0.,4.8,0.,4.8,0.,4.8
1979-07-24 00:26:17.820 ,0,1,5.,4.8,0.,4.8,0.,4.8,0.,4.8
1979-07-24 00:26:22.620 ,4,1,1.,4.8,0.,4.8,0.,4.8,0.,4.8
1979-07-24 00:26:27.420 ,4,1,4.,4.8,0.,4.8,0.,4.8,0.,4.8
1979-07-24 00:26:32.220 ,4,1,4.,4.8,0.,4.8,0.,4.8,0.,4.8
1979-07-24 00:26:37.020 ,4,1,7.,4.8,0.,4.8,0.,4.8,0.,4.8
1979-07-24 00:26:41.820 ,4,1,4.,4.8,1.,4.8,0.,4.8,0.,4.8
1979-07-24 00:26:46.620 ,7,1,6.,4.8,0.,4.8,0.,4.8,0.,4.8
1979-07-24 00:26:51.420 ,7,1,2.,4.8,0.,4.8,1.,4.8,1.,4.8
1979-07-24 00:26:56.220 ,7,1,2.,4.8,0.,4.8,0.,4.8,0.,4.8
1979-07-24 00:27:01.020 ,7,1,4.,4.8,0.,4.8,0.,4.8,0.,4.8
1979-07-24 00:27:05.820 ,7,1,1.,4.8,0.,4.8,0.,4.8,0.,4.8
1979-07-24 00:27:10.620 ,3,1,1.,4.8,0.,4.8,0.,4.8,0.,4.8
1979-07-24 00:27:15.420 ,3,1,0.,4.8,0.,4.8,0.,4.8,0.,4.8
1979-07-24 00:27:20.220 ,3,1,7.,4.8,0.,4.8,0.,4.8,0.,4.8
1979-07-24 00:27:25.020 ,3,1,5.,4.8,0.,4.8,0.,4.8,0.,4.8
1979-07-24 00:27:29.820 ,3,1,6.,4.8,0.,4.8,0.,4.8,0.,4.8
1979-07-24 00:27:34.620 ,0,1,3.,4.8,0.,4.8,0.,4.8,0.,4.8
1979-07-24 00:27:39.420 ,0,1,2.,4.8,0.,4.8,1.,4.8,0.,4.8
1979-07-24 00:27:44.220 ,0,1,4.,4.8,0.,4.8,0.,4.8,0.,4.8
1979-07-24 00:27:49.020 ,0,1,1.,4.8,0.,4.8,0.,4.8,0.,4.8
1979-07-24 00:27:53.820 ,0,1,3.,4.8,0.,4.8,0.,4.8,0.,4.8
1979-07-24 00:27:58.620 ,4,1,2.,4.8,0.,4.8,0.,4.8,0.,4.8
1979-07-24 00:28:03.420 ,4,1,3.,4.8,0.,4.8,0.,4.8,0.,4.8
1979-07-24 00:28:08.220 ,4,1,3.,4.8,0.,4.8,0.,4.8,0.,4.8
1979-07-24 00:28:13.020 ,4,1,5.,4.8,0.,4.8,0.,4.8,0.,4.8
1979-07-24 00:28:17.820 ,4,1,3.,4.8,0.,4.8,0.,4.8,0.,4.8
1979-07-24 00:28:22.620 ,7,1,1.,4.8,0.,4.8,1.,4.8,0.,4.8
1979-07-24 00:28:27.420 ,7,1,2.,4.8,0.,4.8,1.,4.8,0.,4.8
1979-07-24 00:28:32.220 ,7,1,4.,4.8,0.,4.8,0.,4.8,0.,4.8
1979-07-24 00:28:37.020 ,7,1,3.,4.8,0.,4.8,0.,4.8,0.,4.8
1979-07-24 00:28:41.820 ,7,1,4.,4.8,0.,4.8,1.,4.8,0.,4.8
1979-07-24 00:28:46.620 ,3,1,2.,4.8,0.,4.8,0.,4.8,0.,4.8
1979-07-24 00:28:51.420 ,3,1,8.,4.8,0.,4.8,0.,4.8,0.,4.8
1979-07-24 00:28:56.220 ,3,1,3.,4.8,0.,4.8,0.,4.8,0.,4.8
1979-07-24 00:29:01.020 ,3,1,6.,4.8,0.,4.8,0.,4.8,0.,4.8
1979-07-24 00:29:05.820 ,3,1,4.,4.8,0.,4.8,1.,4.8,0.,4.8
1979-07-24 00:29:10.620 ,0,1,2.,4.8,0.,4.8,0.,4.8,0.,4.8
1979-07-24 00:29:15.420 ,0,1,4.,4.8,0.,4.8,0.,4.8,0.,4.8
1979-07-24 00:29:20.220 ,0,1,1.,4.8,1.,4.8,0.,4.8,0.,4.8
1979-07-24 00:29:25.020 ,0,1,4.,4.8,0.,4.8,0.,4.8,0.,4.8
1979-07-24 00:29:29.820 ,0,1,3.,4.8,0.,4.8,0.,4.8,0.,4.8
1979-07-24 00:29:34.620 ,0,0,8.,4.8,0.,4.8,0.,4.8,0.,4.8
1979-07-24 00:29:39.420 ,0,0,0.,4.8,0.,4.8,0.,4.8,0.,4.8
1979-07-24 00:29:44.220 ,0,0,3.,4.8,0.,4.8,0.,4.8,0.,4.8
1979-07-24 00:29:49.020 ,0,0,3.,4.8,0.,4.8,0.,4.8,0.,4.8
1979-07-24 00:29:53.820 ,0,0,3.,4.8,0.,4.8,0.,4.8,0.,4.8
1979-07-24 00:29:58.620 ,0,0,3.,4.8,0.,4.8,1.,4.8,0.,4.8
1979-07-24 00:30:03.420 ,0,0,3.,4.8,0.,4.8,0.,4.8,0.,4.8
1979-07-24 00:30:08.220 ,0,0,4.,4.8,0.,4.8,0.,4.8,0.,4.8
1979-07-24 00:30:13.020 ,0,0,3.,4.8,0.,4.8,0.,4.8,1.,4.8
1979-07-24 00:30:17.820 ,0,0,4.,4.8,0.,4.8,0.,4.8,0.,4.8
1979-07-24 00:30:22.620 ,5,0,3.,4.8,0.,4.8,0.,4.8,0.,4.8
1979-07-24 00:30:27.420 ,5,0,7.,4.8,0.,4.8,0.,4.8,0.,4.8
1979-07-24 00:30:32.220 ,5,0,4.,4.8,0.,4.8,0.,4.8,0.,4.8
1979-07-24 00:30:37.020 ,5,0,2.,4.8,0.,4.8,0.,4.8,0.,4.8
1979-07-24 00:30:41.820 ,5,0,5.,4.8,0.,4.8,0.,4.8,0.,4.8
1979-07-24 00:30:46.620 ,5,0,3.,4.8,0.,4.8,0.,4.8,0.,4.8
1979-07-24 00:30:51.420 ,5,0,7.,4.8,0.,4.8,0.,4.8,0.,4.8
1979-07-24 00:30:56.220 ,5,0,4.,4.8,0.,4.8,0.,4.8,0.,4.8
1979-07-24 00:31:01.020 ,5,0,3.,4.8,0.,4.8,0.,4.8,0.,4.8
1979-07-24 00:31:05.820 ,5,0,2.,4.8,0.,4.8,0.,4.8,0.,4.8
1979-07-24 00:31:10.620 ,4,0,4.,4.8,0.,4.8,0.,4.8,0.,4.8
1979-07-24 00:31:15.420 ,4,0,6.,4.8,0.,4.8,0.,4.8,0.,4.8
1979-07-24 00:31:20.220 ,4,0,7.,4.8,1.,4.8,0.,4.8,0.,4.8
1979-07-24 00:31:25.020 ,4,0,2.,4.8,0.,4.8,0.,4.8,0.,4.8
1979-07-24 00:31:29.820 ,4,0,3.,4.8,0.,4.8,0.,4.8,0.,4.8
1979-07-24 00:31:34.620 ,4,0,4.,4.8,0.,4.8,0.,4.8,0.,4.8
1979-07-24 00:31:39.420 ,4,0,5.,4.8,0.,4.8,0.,4.8,0.,4.8
1979-07-24 00:31:44.220 ,4,0,6.,4.8,0.,4.8,0.,4.8,1.,4.8
1979-07-24 00:31:49.020 ,4,0,2.,4.8,0.,4.8,0.,4.8,0.,4.8
1979-07-24 00:31:53.820 ,4,0,2.,4.8,0.,4.8,0.,4.8,0.,4.8
1979-07-24 00:31:58.620 ,3,0,4.,4.8,0.,4.8,0.,4.8,0.,4.8
1979-07-24 00:32:03.420 ,3,0,4.,4.8,0.,4.8,0.,4.8,0.,4.8
1979-07-24 00:32:08.220 ,3,0,2.,4.8,0.,4.8,0.,4.8,0.,4.8
1979-07-24 00:32:13.020 ,3,0,1.,4.8,0.,4.8,0.,4.8,0.,4.8
1979-07-24 00:32:17.820 ,3,0,5.,4.8,0.,4.8,1.,4.8,0.,4.8
1979-07-24 00:32:22.620 ,3,0,5.,4.8,0.,4.8,0.,4.8,0.,4.8
1979-07-24 00:32:27.420 ,3,0,5.,4.8,0.,4.8,0.,4.8,0.,4.8
1979-07-24 00:32:32.220 ,3,0,3.,4.8,0.,4.8,0.,4.8,0.,4.8
1979-07-24 00:32:37.020 ,3,0,6.,4.8,0.,4.8,0.,4.8,0.,4.8
1979-07-24 00:32:41.820 ,3,0,4.,4.8,0.,4.8,0.,4.8,0.,4.8
1979-07-24 00:32:46.620 ,2,0,4.,4.8,0.,4.8,1.,4.8,0.,4.8
1979-07-24 00:32:51.420 ,2,0,5.,4.8,0.,4.8,0.,4.8,0.,4.8
1979-07-24 00:32:56.220 ,2,0,10.,4.8,0.,4.8,0.,4.8,0.,4.8
1979-07-24 00:33:01.020 ,2,0,6.,4.8,0.,4.8,0.,4.8,0.,4.8
1979-07-24 00:33:05.820 ,2,0,5.,4.8,0.,4.8,0.,4.8,0.,4.8
1979-07-24 00:33:10.620 ,2,0,4.,4.8,0.,4.8,0.,4.8,0.,4.8
1979-07-24 00:33:15.420 ,2,0,4.,4.8,0.,4.8,0.,4.8,0.,4.8